Tracking 31027 objects as of 19-Jul-2025
HD Live streaming from Space Station
objects crossing your sky now

STARLINK-32357

Track STARLINK-32357 now!
10-day predictions
STARLINK-32357 is classified as:


NORAD ID: 61009
Int'l Code: 2024-158V
Perigee: 472.7 km
Apogee: 476.2 km
Inclination: 53.2 °
Period: 93.9 minutes
Semi major axis: 6845 km
RCS: Unknown
Launch date: September 5, 2024
Source: United States (US)
Launch site: AIR FORCE EASTERN TEST RANGE (AFETR)
Your satellite tracking list
SL-12 R/B(2)
Track 1 satellite(s)




NASA's NSSDC Master Catalog

Two Line Element Set (TLE):
1 61009U 24158V   25199.52969543  .00020898  00000-0  65905-3 0  9990
2 61009  53.1608  33.3804 0002527 100.8460 259.2827 15.32859302 50285
Source of the keplerian elements: AFSPC